status,avgMeasuredTime,avgSpeed,extID,medianMeasuredTime,TIMESTAMP,vehicleCount,_id,REPORT_ID
OK,38,78,637,38,2014-08-01T07:50:00,1,20746189,209827
OK,70,42,637,70,2014-08-01T07:55:00,1,20746361,209827
OK,61,48,637,61,2014-08-01T08:00:00,2,20746692,209827
OK,67,44,637,67,2014-08-01T08:05:00,4,20747141,209827
OK,82,36,637,82,2014-08-01T08:10:00,3,20747514,209827
OK,82,36,637,82,2014-08-01T08:15:00,0,20747963,209827
OK,82,36,637,82,2014-08-01T08:20:00,0,20748412,209827
OK,82,36,637,82,2014-08-01T08:25:00,0,20748861,209827
OK,84,35,637,84,2014-08-01T08:30:00,1,20749310,209827
OK,84,35,637,84,2014-08-01T08:35:00,1,20749759,209827
OK,84,35,637,84,2014-08-01T08:40:00,0,20750208,209827
OK,84,35,637,84,2014-08-01T08:45:00,0,20750657,209827
OK,72,41,637,72,2014-08-01T08:50:00,5,20751106,209827
OK,59,50,637,59,2014-08-01T08:55:00,3,20751555,209827
OK,59,50,637,59,2014-08-01T09:00:00,0,20752004,209827
OK,59,50,637,59,2014-08-01T09:05:00,0,20752453,209827
OK,62,48,637,62,2014-08-01T09:10:00,2,20752902,209827
OK,60,49,637,60,2014-08-01T09:15:00,1,20753351,209827
OK,76,39,637,76,2014-08-01T09:20:00,2,20753800,209827
OK,76,39,637,76,2014-08-01T09:25:00,2,20754249,209827
OK,53,56,637,53,2014-08-01T09:30:00,1,20754698,209827
OK,64,46,637,64,2014-08-01T09:35:00,2,20755147,209827
OK,102,29,637,102,2014-08-01T09:40:00,2,20755596,209827
OK,92,32,637,92,2014-08-01T09:45:00,1,20756045,209827
OK,69,43,637,69,2014-08-01T09:50:00,4,20756494,209827
OK,69,43,637,69,2014-08-01T09:55:00,5,20756943,209827
OK,56,53,637,56,2014-08-01T10:00:00,4,20757392,209827
OK,60,49,637,60,2014-08-01T10:05:00,5,20757841,209827
OK,73,40,637,73,2014-08-01T10:10:00,0,20758290,209827
OK,57,52,637,57,2014-08-01T10:15:00,2,20758739,209827
OK,58,51,637,58,2014-08-01T10:20:00,3,20759188,209827
OK,58,51,637,58,2014-08-01T10:25:00,1,20759637,209827
OK,50,59,637,50,2014-08-01T10:30:00,1,20760086,209827
OK,57,52,637,57,2014-08-01T10:35:00,2,20760535,209827
OK,64,46,637,64,2014-08-01T10:40:00,0,20760984,209827
OK,75,39,637,75,2014-08-01T10:45:00,1,20761433,209827
OK,65,45,637,65,2014-08-01T10:50:00,2,20761882,209827
OK,55,54,637,55,2014-08-01T10:55:00,1,20762331,209827
OK,85,35,637,85,2014-08-01T11:00:00,3,20762780,209827
OK,85,35,637,85,2014-08-01T11:05:00,3,20763229,209827
OK,51,58,637,51,2014-08-01T11:10:00,1,20763678,209827
OK,174,17,637,174,2014-08-01T11:15:00,1,20764127,209827
OK,80,37,637,80,2014-08-01T11:20:00,3,20764575,209827
OK,64,46,637,64,2014-08-01T11:25:00,2,20765024,209827
OK,58,51,637,58,2014-08-01T11:30:00,4,20765473,209827
OK,61,48,637,61,2014-08-01T11:35:00,8,20765922,209827
OK,70,42,637,70,2014-08-01T11:40:00,8,20766371,209827
OK,76,39,637,76,2014-08-01T11:45:00,4,20766820,209827
OK,59,50,637,59,2014-08-01T11:50:00,1,20767269,209827
OK,59,50,637,59,2014-08-01T11:55:00,1,20767718,209827
OK,70,42,637,70,2014-08-01T12:00:00,2,20768167,209827
OK,64,46,637,64,2014-08-01T12:05:00,3,20768616,209827
OK,50,59,637,50,2014-08-01T12:10:00,2,20769065,209827
OK,36,82,637,36,2014-08-01T12:15:00,1,20769514,209827
OK,60,49,637,60,2014-08-01T12:20:00,2,20769963,209827
OK,68,43,637,68,2014-08-01T12:25:00,2,20770412,209827
OK,58,51,637,58,2014-08-01T12:30:00,5,20770861,209827
OK,58,51,637,58,2014-08-01T12:35:00,3,20771310,209827
OK,71,42,637,71,2014-08-01T12:40:00,3,20771759,209827
OK,71,42,637,71,2014-08-01T12:45:00,3,20772208,209827
OK,59,50,637,59,2014-08-01T12:50:00,3,20772657,209827
OK,89,33,637,89,2014-08-01T12:55:00,2,20773106,209827
OK,62,48,637,62,2014-08-01T13:00:00,1,20773555,209827
OK,74,40,637,74,2014-08-01T13:05:00,1,20774004,209827
OK,58,51,637,58,2014-08-01T13:10:00,1,20774453,209827
OK,59,50,637,59,2014-08-01T13:15:00,4,20774902,209827
OK,55,54,637,55,2014-08-01T13:20:00,5,20775351,209827
OK,55,54,637,55,2014-08-01T13:25:00,1,20775800,209827
OK,57,52,637,57,2014-08-01T13:30:00,1,20776249,209827
OK,57,52,637,57,2014-08-01T13:35:00,1,20776698,209827
OK,50,59,637,50,2014-08-01T13:40:00,2,20777147,209827
OK,49,60,637,49,2014-08-01T13:45:00,3,20777596,209827
OK,54,55,637,54,2014-08-01T13:50:00,3,20778045,209827
OK,54,55,637,54,2014-08-01T13:55:00,3,20778494,209827
OK,47,63,637,47,2014-08-01T14:00:00,1,20778943,209827
OK,58,51,637,58,2014-08-01T14:05:00,1,20779392,209827
OK,56,53,637,56,2014-08-01T14:10:00,2,20779841,209827
OK,54,55,637,54,2014-08-01T14:15:00,1,20780290,209827
OK,62,48,637,62,2014-08-01T14:20:00,2,20780739,209827
OK,64,46,637,64,2014-08-01T14:25:00,3,20781188,209827
OK,143,20,637,143,2014-08-01T14:30:00,1,20781637,209827
OK,52,57,637,52,2014-08-01T14:35:00,3,20782086,209827
OK,56,53,637,56,2014-08-01T14:40:00,6,20782535,209827
OK,63,47,637,63,2014-08-01T14:45:00,4,20782984,209827
OK,57,52,637,57,2014-08-01T14:50:00,1,20783433,209827
OK,46,64,637,46,2014-08-01T14:55:00,2,20783882,209827
OK,42,71,637,42,2014-08-01T15:00:00,5,20784331,209827
OK,53,56,637,53,2014-08-01T15:05:00,3,20784780,209827
OK,139,21,637,139,2014-08-01T15:10:00,1,20785229,209827
OK,91,32,637,91,2014-08-01T15:15:00,2,20785678,209827
OK,65,45,637,65,2014-08-01T15:20:00,2,20786127,209827
OK,77,38,637,77,2014-08-01T15:25:00,3,20786576,209827
OK,70,42,637,70,2014-08-01T15:30:00,3,20787025,209827
OK,63,47,637,63,2014-08-01T15:35:00,5,20787474,209827
OK,63,47,637,63,2014-08-01T15:40:00,5,20787923,209827
OK,84,35,637,84,2014-08-01T15:45:00,2,20788372,209827
OK,67,44,637,67,2014-08-01T15:50:00,4,20788821,209827
OK,62,48,637,62,2014-08-01T15:55:00,2,20789270,209827
OK,51,58,637,51,2014-08-01T16:00:00,1,20789719,209827
OK,51,58,637,51,2014-08-01T16:05:00,1,20790168,209827
OK,51,58,637,51,2014-08-01T16:10:00,0,20790617,209827
OK,70,42,637,70,2014-08-01T16:15:00,2,20791066,209827
OK,70,42,637,70,2014-08-01T16:20:00,0,20791515,209827
OK,70,42,637,70,2014-08-01T16:25:00,0,20791964,209827
OK,70,42,637,70,2014-08-01T16:30:00,0,20792413,209827
OK,64,46,637,64,2014-08-01T16:35:00,1,20792862,209827
OK,64,46,637,64,2014-08-01T16:40:00,1,20793311,209827
OK,64,46,637,64,2014-08-01T16:45:00,0,20793760,209827
OK,64,46,637,64,2014-08-01T16:50:00,0,20794209,209827
OK,64,46,637,64,2014-08-01T16:55:00,0,20794658,209827
OK,188,15,637,188,2014-08-01T17:00:00,1,20795107,209827
OK,85,35,637,85,2014-08-01T17:05:00,3,20795556,209827
OK,85,35,637,85,2014-08-01T17:10:00,1,20796005,209827
OK,85,35,637,85,2014-08-01T17:15:00,0,20796454,209827
OK,85,35,637,85,2014-08-01T17:20:00,0,20796903,209827
OK,85,35,637,85,2014-08-01T17:25:00,0,20797352,209827
OK,85,35,637,85,2014-08-01T17:30:00,0,20797801,209827
OK,85,35,637,85,2014-08-01T17:35:00,0,20798250,209827
OK,85,35,637,85,2014-08-01T17:40:00,0,20798699,209827
OK,85,35,637,85,2014-08-01T17:45:00,1,20799148,209827
OK,85,35,637,85,2014-08-01T17:50:00,1,20799597,209827
OK,52,57,637,52,2014-08-01T17:55:00,2,20800046,209827
OK,52,57,637,52,2014-08-01T18:00:00,2,20800495,209827
OK,43,69,637,43,2014-08-01T18:05:00,0,20800944,209827
OK,43,69,637,43,2014-08-01T18:10:00,0,20801393,209827
OK,43,69,637,43,2014-08-01T18:15:00,0,20801842,209827
OK,43,69,637,43,2014-08-01T18:20:00,0,20802291,209827
OK,43,69,637,43,2014-08-01T18:25:00,0,20802740,209827
OK,157,19,637,157,2014-08-01T18:30:00,1,20803189,209827
OK,157,19,637,157,2014-08-01T18:35:00,0,20803638,209827
OK,157,19,637,157,2014-08-01T18:40:00,0,20804087,209827
OK,157,19,637,157,2014-08-01T18:45:00,0,20804536,209827
OK,157,19,637,157,2014-08-01T18:50:00,0,20804985,209827
OK,49,60,637,49,2014-08-01T18:55:00,1,20805434,209827
OK,59,50,637,59,2014-08-01T19:00:00,1,20805883,209827
OK,59,50,637,59,2014-08-01T19:05:00,1,20806332,209827
OK,59,50,637,59,2014-08-01T19:10:00,0,20806781,209827
OK,59,50,637,59,2014-08-01T19:15:00,0,20807230,209827
OK,60,49,637,60,2014-08-01T19:20:00,2,20807679,209827
OK,51,58,637,51,2014-08-01T19:25:00,1,20808128,209827
OK,51,58,637,51,2014-08-01T19:30:00,0,20808577,209827
OK,51,58,637,51,2014-08-01T19:35:00,0,20809026,209827
OK,51,58,637,51,2014-08-01T19:40:00,0,20809475,209827
OK,51,58,637,51,2014-08-01T19:45:00,0,20809924,209827
OK,66,45,637,66,2014-08-01T19:50:00,1,20810373,209827
OK,66,45,637,66,2014-08-01T19:55:00,0,20810822,209827
OK,66,45,637,66,2014-08-01T20:00:00,0,20811270,209827
OK,66,45,637,66,2014-08-01T20:05:00,0,20811442,209827
OK,59,50,637,59,2014-08-01T20:10:00,1,20811644,209827
OK,59,50,637,59,2014-08-01T20:15:00,1,20811851,209827
OK,79,37,637,79,2014-08-01T20:20:00,1,20812059,209827
OK,79,37,637,79,2014-08-01T20:25:00,1,20812279,209827
OK,79,37,637,79,2014-08-01T20:30:00,0,20812492,209827
OK,54,55,637,54,2014-08-01T20:35:00,1,20812702,209827
OK,84,35,637,84,2014-08-01T20:40:00,2,20812904,209827
OK,87,34,637,87,2014-08-01T20:45:00,1,20813110,209827
OK,87,34,637,87,2014-08-01T20:50:00,0,20813321,209827
OK,87,34,637,87,2014-08-01T20:55:00,0,20813551,209827
OK,87,34,637,87,2014-08-01T21:00:00,0,20813789,209827
OK,207,14,637,207,2014-08-01T21:05:00,1,20813967,209827
OK,207,14,637,207,2014-08-01T21:10:00,1,20814206,209827
OK,207,14,637,207,2014-08-01T21:15:00,0,20814402,209827
OK,207,14,637,207,2014-08-01T21:20:00,0,20814608,209827
OK,56,53,637,56,2014-08-01T21:25:00,0,20814838,209827
OK,56,53,637,56,2014-08-01T21:30:00,0,20815113,209827
OK,56,53,637,56,2014-08-01T21:35:00,0,20815347,209827
OK,56,53,637,56,2014-08-01T21:40:00,0,20815570,209827
OK,61,48,637,61,2014-08-01T21:45:00,1,20815807,209827
OK,61,48,637,61,2014-08-01T21:50:00,1,20816048,209827
OK,61,48,637,61,2014-08-01T21:55:00,0,20816283,209827
OK,61,48,637,61,2014-08-01T22:00:00,0,20816551,209827
OK,61,48,637,61,2014-08-01T22:05:00,0,20817000,209827
OK,61,48,637,61,2014-08-01T22:10:00,0,20817322,209827
OK,61,48,637,61,2014-08-01T22:15:00,0,20817751,209827
OK,61,48,637,61,2014-08-01T22:20:00,0,20818041,209827
OK,29,102,637,29,2014-08-01T22:25:00,1,20818357,209827
OK,29,102,637,29,2014-08-01T22:30:00,1,20818691,209827
OK,29,102,637,29,2014-08-01T22:35:00,0,20818996,209827
OK,29,102,637,29,2014-08-01T22:40:00,0,20819175,209827
OK,29,102,637,29,2014-08-01T22:45:00,0,20819463,209827
OK,29,102,637,29,2014-08-01T22:50:00,0,20819698,209827
OK,29,102,637,29,2014-08-01T22:55:00,0,20819951,209827
OK,29,102,637,29,2014-08-01T23:00:00,0,20820127,209827
OK,29,102,637,29,2014-08-01T23:05:00,0,20820380,209827
OK,29,102,637,29,2014-08-01T23:10:00,0,20820610,209827
OK,29,102,637,29,2014-08-01T23:15:00,0,20820798,209827
OK,29,102,637,29,2014-08-01T23:20:00,0,20821051,209827
OK,29,102,637,29,2014-08-01T23:25:00,0,20821227,209827
OK,29,102,637,29,2014-08-01T23:30:00,0,20821452,209827
OK,29,102,637,29,2014-08-01T23:35:00,0,20821697,209827
OK,29,102,637,29,2014-08-01T23:40:00,0,20821876,209827
OK,29,102,637,29,2014-08-01T23:45:00,0,20822099,209827
OK,29,102,637,29,2014-08-01T23:50:00,0,20822366,209827
OK,58,51,637,58,2014-08-01T23:55:00,1,20822692,209827
OK,58,51,637,58,2014-08-02T00:00:00,0,20822990,209827
OK,58,51,637,58,2014-08-02T00:05:00,0,20823439,209827
OK,58,51,637,58,2014-08-02T00:10:00,0,20823888,209827
OK,58,51,637,58,2014-08-02T00:15:00,0,20824337,209827
OK,58,51,637,58,2014-08-02T00:20:00,0,20824786,209827
OK,58,51,637,58,2014-08-02T00:25:00,0,20825235,209827
OK,58,51,637,58,2014-08-02T00:30:00,0,20825684,209827
OK,58,51,637,58,2014-08-02T00:35:00,0,20826133,209827
OK,47,63,637,47,2014-08-02T00:40:00,1,20826582,209827
OK,47,63,637,47,2014-08-02T00:45:00,1,20827031,209827
OK,47,63,637,47,2014-08-02T00:50:00,0,20827480,209827
OK,47,63,637,47,2014-08-02T00:55:00,0,20827929,209827
OK,47,63,637,47,2014-08-02T01:00:00,0,20828378,209827
OK,47,63,637,47,2014-08-02T01:05:00,0,20828827,209827
OK,47,63,637,47,2014-08-02T01:10:00,0,20829276,209827
OK,47,63,637,47,2014-08-02T01:15:00,0,20829725,209827
OK,47,63,637,47,2014-08-02T01:20:00,0,20830174,209827
OK,47,63,637,47,2014-08-02T01:25:00,0,20830623,209827
OK,47,63,637,47,2014-08-02T01:30:00,0,20831072,209827
OK,47,63,637,47,2014-08-02T01:35:00,0,20831521,209827
OK,47,63,637,47,2014-08-02T01:40:00,0,20831970,209827
OK,47,63,637,47,2014-08-02T01:45:00,0,20832419,209827
OK,47,63,637,47,2014-08-02T01:50:00,0,20832868,209827
OK,47,63,637,47,2014-08-02T01:55:00,0,20833317,209827
OK,47,63,637,47,2014-08-02T02:00:00,0,20833766,209827
OK,47,63,637,47,2014-08-02T02:05:00,0,20834215,209827
OK,47,63,637,47,2014-08-02T02:10:00,0,20834664,209827
OK,47,63,637,47,2014-08-02T02:15:00,0,20835113,209827
OK,47,63,637,47,2014-08-02T02:20:00,0,20835562,209827
OK,47,63,637,47,2014-08-02T02:25:00,0,20836011,209827
OK,47,63,637,47,2014-08-02T02:30:00,0,20836460,209827
OK,47,63,637,47,2014-08-02T02:35:00,0,20836909,209827
OK,47,63,637,47,2014-08-02T02:40:00,0,20837358,209827
OK,47,63,637,47,2014-08-02T02:45:00,0,20837807,209827
OK,47,63,637,47,2014-08-02T02:50:00,0,20838256,209827
OK,47,63,637,47,2014-08-02T02:55:00,0,20838705,209827
OK,47,63,637,47,2014-08-02T03:00:00,0,20839154,209827
OK,47,63,637,47,2014-08-02T03:05:00,0,20839603,209827
OK,47,63,637,47,2014-08-02T03:10:00,0,20840052,209827
OK,57,52,637,57,2014-08-02T03:15:00,1,20840501,209827
OK,57,52,637,57,2014-08-02T03:20:00,0,20840950,209827
OK,49,60,637,49,2014-08-02T03:25:00,0,20841399,209827
OK,49,60,637,49,2014-08-02T03:30:00,0,20841848,209827
OK,49,60,637,49,2014-08-02T03:35:00,0,20842297,209827
OK,49,60,637,49,2014-08-02T03:40:00,0,20842746,209827
OK,49,60,637,49,2014-08-02T03:45:00,0,20843195,209827
OK,49,60,637,49,2014-08-02T03:50:00,0,20843644,209827
OK,49,60,637,49,2014-08-02T03:55:00,0,20844093,209827
OK,49,60,637,49,2014-08-02T04:00:00,0,20844542,209827
OK,49,60,637,49,2014-08-02T04:05:00,0,20844673,209827
OK,49,60,637,49,2014-08-02T04:10:00,0,20845003,209827
OK,49,60,637,49,2014-08-02T04:15:00,0,20845183,209827
OK,49,60,637,49,2014-08-02T04:20:00,0,20845539,209827
OK,49,60,637,49,2014-08-02T04:25:00,0,20845907,209827
OK,49,60,637,49,2014-08-02T04:30:00,0,20846095,209827
OK,49,60,637,49,2014-08-02T04:35:00,0,20846462,209827
OK,38,78,637,38,2014-08-02T04:40:00,1,20846845,209827
OK,38,78,637,38,2014-08-02T04:45:00,0,20847104,209827
OK,38,78,637,38,2014-08-02T04:50:00,0,20847470,209827
OK,38,78,637,38,2014-08-02T04:55:00,0,20847827,209827
OK,38,78,637,38,2014-08-02T05:00:00,0,20848187,209827
OK,42,71,637,42,2014-08-02T05:05:00,0,20848353,209827
OK,42,71,637,42,2014-08-02T05:10:00,0,20848705,209827
OK,42,71,637,42,2014-08-02T05:15:00,0,20848897,209827
OK,42,71,637,42,2014-08-02T05:20:00,0,20849241,209827
OK,42,71,637,42,2014-08-02T05:25:00,0,20849559,209827
OK,42,71,637,42,2014-08-02T05:30:00,0,20849766,209827
OK,42,71,637,42,2014-08-02T05:35:00,0,20850038,209827
OK,42,71,637,42,2014-08-02T05:40:00,0,20850331,209827
OK,42,71,637,42,2014-08-02T05:45:00,0,20850632,209827
OK,42,71,637,42,2014-08-02T05:50:00,0,20850990,209827
OK,42,71,637,42,2014-08-02T05:55:00,0,20851244,209827
OK,42,71,637,42,2014-08-02T06:00:00,0,20851547,209827
OK,42,71,637,42,2014-08-02T06:05:00,0,20851996,209827
OK,42,71,637,42,2014-08-02T06:10:00,0,20852445,209827
OK,42,71,637,42,2014-08-02T06:15:00,0,20852894,209827
OK,42,71,637,42,2014-08-02T06:20:00,0,20853343,209827
OK,42,71,637,42,2014-08-02T06:25:00,0,20853792,209827
OK,42,71,637,42,2014-08-02T06:30:00,0,20854241,209827
OK,42,71,637,42,2014-08-02T06:35:00,0,20854690,209827
OK,42,71,637,42,2014-08-02T06:40:00,0,20855139,209827
OK,57,52,637,57,2014-08-02T06:45:00,1,20855588,209827
OK,57,52,637,57,2014-08-02T06:50:00,1,20856037,209827
OK,57,52,637,57,2014-08-02T06:55:00,0,20856486,209827
OK,57,52,637,57,2014-08-02T07:00:00,0,20856935,209827
OK,57,52,637,57,2014-08-02T07:05:00,0,20857384,209827
OK,57,52,637,57,2014-08-02T07:10:00,0,20857833,209827
OK,57,52,637,57,2014-08-02T07:15:00,0,20858282,209827
OK,57,52,637,57,2014-08-02T07:20:00,0,20858731,209827
OK,57,52,637,57,2014-08-02T07:25:00,0,20859180,209827
OK,57,52,637,57,2014-08-02T07:30:00,0,20859629,209827
OK,57,52,637,57,2014-08-02T07:35:00,0,20860078,209827
OK,57,52,637,57,2014-08-02T07:40:00,0,20860527,209827
OK,76,39,637,76,2014-08-02T07:45:00,1,20860976,209827
OK,76,39,637,76,2014-08-02T07:50:00,0,20861425,209827
OK,76,39,637,76,2014-08-02T07:55:00,0,20861874,209827
OK,82,36,637,82,2014-08-02T08:00:00,1,20862323,209827
OK,82,36,637,82,2014-08-02T08:05:00,0,20862772,209827
OK,82,36,637,82,2014-08-02T08:10:00,0,20863221,209827
OK,77,38,637,77,2014-08-02T08:15:00,1,20863670,209827
OK,62,48,637,62,2014-08-02T08:20:00,2,20864119,209827
OK,50,59,637,50,2014-08-02T08:25:00,4,20864568,209827
OK,53,56,637,53,2014-08-02T08:30:00,3,20865017,209827
OK,89,33,637,89,2014-08-02T08:35:00,1,20865466,209827
OK,89,33,637,89,2014-08-02T08:40:00,1,20865915,209827
OK,89,33,637,89,2014-08-02T08:45:00,0,20866364,209827
OK,89,33,637,89,2014-08-02T08:50:00,0,20866813,209827
OK,89,33,637,89,2014-08-02T08:55:00,0,20867262,209827
OK,57,52,637,57,2014-08-02T09:00:00,2,20867711,209827
OK,62,48,637,62,2014-08-02T09:05:00,1,20868160,209827
OK,74,40,637,74,2014-08-02T09:10:00,1,20868609,209827
OK,83,35,637,83,2014-08-02T09:15:00,2,20869058,209827
OK,73,40,637,73,2014-08-02T09:20:00,2,20869507,209827
OK,53,56,637,53,2014-08-02T09:25:00,1,20869956,209827
OK,53,56,637,53,2014-08-02T09:30:00,0,20870405,209827
OK,70,42,637,70,2014-08-02T09:35:00,0,20870854,209827
OK,56,53,637,56,2014-08-02T09:40:00,1,20871303,209827
OK,53,56,637,53,2014-08-02T09:45:00,2,20871752,209827
OK,59,50,637,59,2014-08-02T09:50:00,2,20872201,209827
OK,47,63,637,47,2014-08-02T09:55:00,1,20872650,209827
OK,82,36,637,82,2014-08-02T10:00:00,1,20873099,209827
OK,82,36,637,82,2014-08-02T10:05:00,1,20873548,209827
OK,82,36,637,82,2014-08-02T10:10:00,0,20873997,209827
OK,82,36,637,82,2014-08-02T10:15:00,0,20874446,209827
OK,115,25,637,115,2014-08-02T10:20:00,1,20874895,209827
OK,101,29,637,101,2014-08-02T10:25:00,2,20875344,209827
OK,69,43,637,69,2014-08-02T10:30:00,2,20875793,209827
OK,49,60,637,49,2014-08-02T10:35:00,3,20876242,209827
OK,45,66,637,45,2014-08-02T10:40:00,1,20876691,209827
OK,105,28,637,105,2014-08-02T10:45:00,1,20877140,209827
OK,79,37,637,79,2014-08-02T10:50:00,2,20877589,209827
OK,54,55,637,54,2014-08-02T10:55:00,3,20878038,209827
OK,54,55,637,54,2014-08-02T11:00:00,3,20878487,209827
OK,58,51,637,58,2014-08-02T11:05:00,2,20878936,209827
OK,55,54,637,55,2014-08-02T11:10:00,2,20879385,209827
OK,60,49,637,60,2014-08-02T11:15:00,2,20879834,209827
OK,58,51,637,58,2014-08-02T11:20:00,1,20880283,209827
OK,58,51,637,58,2014-08-02T11:25:00,0,20880732,209827
OK,103,28,637,103,2014-08-02T11:30:00,2,20881181,209827
OK,112,26,637,112,2014-08-02T11:35:00,2,20881630,209827
OK,64,46,637,64,2014-08-02T11:40:00,0,20882079,209827
OK,64,46,637,64,2014-08-02T11:45:00,0,20882528,209827
OK,49,60,637,49,2014-08-02T11:50:00,1,20882977,209827
OK,48,62,637,48,2014-08-02T11:55:00,1,20883426,209827
OK,40,74,637,40,2014-08-02T12:00:00,1,20883875,209827
OK,47,63,637,47,2014-08-02T12:05:00,1,20884324,209827
OK,47,63,637,47,2014-08-02T12:10:00,0,20884773,209827
OK,47,63,637,47,2014-08-02T12:15:00,0,20885222,209827
OK,47,63,637,47,2014-08-02T12:20:00,0,20885671,209827
OK,49,60,637,49,2014-08-02T12:25:00,1,20886120,209827
OK,47,63,637,47,2014-08-02T12:30:00,2,20886569,209827
OK,60,49,637,60,2014-08-02T12:35:00,1,20887018,209827
OK,60,49,637,60,2014-08-02T12:40:00,0,20887467,209827
OK,60,49,637,60,2014-08-02T12:45:00,0,20887916,209827
OK,73,40,637,73,2014-08-02T12:50:00,1,20888365,209827
OK,86,34,637,86,2014-08-02T12:55:00,1,20888814,209827
OK,59,50,637,59,2014-08-02T13:00:00,3,20889263,209827
OK,52,57,637,52,2014-08-02T13:05:00,1,20889712,209827
OK,72,41,637,72,2014-08-02T13:10:00,1,20890161,209827
OK,73,40,637,73,2014-08-02T13:15:00,3,20890610,209827
OK,73,40,637,73,2014-08-02T13:20:00,3,20891059,209827
OK,47,63,637,47,2014-08-02T13:25:00,1,20891508,209827
OK,47,63,637,47,2014-08-02T13:30:00,1,20891957,209827
OK,47,63,637,47,2014-08-02T13:35:00,0,20892406,209827
OK,66,45,637,66,2014-08-02T13:40:00,1,20892855,209827
OK,66,45,637,66,2014-08-02T13:45:00,0,20893304,209827
OK,66,45,637,66,2014-08-02T13:50:00,0,20893753,209827
OK,66,45,637,66,2014-08-02T13:55:00,0,20894202,209827
OK,51,58,637,51,2014-08-02T14:00:00,1,20894651,209827
OK,48,62,637,48,2014-08-02T14:05:00,2,20895100,209827
OK,46,64,637,46,2014-08-02T14:10:00,0,20895549,209827
OK,72,41,637,72,2014-08-02T14:15:00,1,20895998,209827
OK,72,41,637,72,2014-08-02T14:20:00,1,20896447,209827
OK,72,41,637,72,2014-08-02T14:25:00,0,20896896,209827
OK,56,53,637,56,2014-08-02T14:30:00,1,20897345,209827
OK,54,55,637,54,2014-08-02T14:35:00,2,20897794,209827
OK,59,50,637,59,2014-08-02T14:40:00,2,20898243,209827
OK,74,40,637,74,2014-08-02T14:45:00,2,20898692,209827
OK,47,63,637,47,2014-08-02T14:50:00,1,20899141,209827
OK,47,63,637,47,2014-08-02T14:55:00,0,20899590,209827
OK,47,63,637,47,2014-08-02T15:00:00,0,20900039,209827
OK,47,63,637,47,2014-08-02T15:05:00,0,20900488,209827
OK,47,63,637,47,2014-08-02T15:10:00,0,20900937,209827
OK,78,38,637,78,2014-08-02T15:15:00,1,20901386,209827
OK,78,38,637,78,2014-08-02T15:20:00,0,20901835,209827
OK,41,72,637,41,2014-08-02T15:25:00,0,20902284,209827
OK,41,72,637,41,2014-08-02T15:30:00,0,20902733,209827
OK,50,59,637,50,2014-08-02T15:35:00,2,20903182,209827
OK,53,56,637,53,2014-08-02T15:40:00,4,20903631,209827
OK,57,52,637,57,2014-08-02T15:45:00,2,20904080,209827
OK,55,54,637,55,2014-08-02T15:50:00,1,20904529,209827
OK,55,54,637,55,2014-08-02T15:55:00,1,20904978,209827
OK,55,54,637,55,2014-08-02T16:00:00,0,20905427,209827
OK,55,54,637,55,2014-08-02T16:05:00,0,20905876,209827
OK,55,54,637,55,2014-08-02T16:10:00,0,20906325,209827
OK,49,60,637,49,2014-08-02T16:15:00,1,20906774,209827
OK,58,51,637,58,2014-08-02T16:20:00,3,20907223,209827
OK,58,51,637,58,2014-08-02T16:25:00,2,20907672,209827
OK,54,55,637,54,2014-08-02T16:30:00,1,20908121,209827
OK,54,55,637,54,2014-08-02T16:35:00,0,20908570,209827
OK,54,55,637,54,2014-08-02T16:40:00,0,20909019,209827
OK,54,55,637,54,2014-08-02T16:45:00,0,20909468,209827
OK,54,55,637,54,2014-08-02T16:50:00,0,20909917,209827
OK,54,55,637,54,2014-08-02T16:55:00,0,20910366,209827
OK,78,38,637,78,2014-08-02T17:00:00,1,20910815,209827
OK,78,38,637,78,2014-08-02T17:05:00,1,20911264,209827
OK,78,38,637,78,2014-08-02T17:10:00,0,20911713,209827
OK,78,38,637,78,2014-08-02T17:15:00,0,20912162,209827
OK,80,37,637,80,2014-08-02T17:20:00,2,20912611,209827
OK,80,37,637,80,2014-08-02T17:25:00,2,20913060,209827
OK,80,37,637,80,2014-08-02T17:30:00,0,20913509,209827
OK,80,37,637,80,2014-08-02T17:35:00,0,20913958,209827
OK,80,37,637,80,2014-08-02T17:40:00,0,20914407,209827
OK,80,37,637,80,2014-08-02T17:45:00,0,20914856,209827
OK,80,37,637,80,2014-08-02T17:50:00,0,20915305,209827
OK,80,37,637,80,2014-08-02T17:55:00,0,20915754,209827
OK,80,37,637,80,2014-08-02T18:00:00,0,20916203,209827
OK,80,37,637,80,2014-08-02T18:05:00,0,20916652,209827
OK,80,37,637,80,2014-08-02T18:10:00,0,20917101,209827
OK,80,37,637,80,2014-08-02T18:15:00,0,20917550,209827
OK,80,37,637,80,2014-08-02T18:20:00,0,20917999,209827
OK,80,37,637,80,2014-08-02T18:25:00,0,20918448,209827
OK,61,48,637,61,2014-08-02T18:30:00,1,20918897,209827
OK,61,48,637,61,2014-08-02T18:35:00,1,20919346,209827
OK,53,56,637,53,2014-08-02T18:40:00,2,20919795,209827
OK,53,56,637,53,2014-08-02T18:45:00,2,20920244,209827
OK,51,58,637,51,2014-08-02T18:50:00,0,20920693,209827
OK,58,51,637,58,2014-08-02T18:55:00,1,20921142,209827
OK,62,48,637,62,2014-08-02T19:00:00,2,20921591,209827
OK,67,44,637,67,2014-08-02T19:05:00,1,20922040,209827
OK,67,44,637,67,2014-08-02T19:10:00,0,20922489,209827
OK,57,52,637,57,2014-08-02T19:15:00,1,20922938,209827
OK,56,53,637,56,2014-08-02T19:20:00,1,20923387,209827
OK,56,53,637,56,2014-08-02T19:25:00,0,20923836,209827
OK,56,53,637,56,2014-08-02T19:30:00,0,20924285,209827
OK,56,53,637,56,2014-08-02T19:35:00,0,20924734,209827
OK,56,53,637,56,2014-08-02T19:40:00,0,20925183,209827
OK,56,53,637,56,2014-08-02T19:45:00,0,20925632,209827
OK,61,48,637,61,2014-08-02T19:50:00,1,20926081,209827